SWA4004 KRIC-KBWI

Flight info

Callsign SWA4004
Flight time 0h 27m
Altitude 11000
Route LUCYL6 LUCYL SHLBK LOUIE MIIDY MIIDY3
Aircraft B737/M-SADE2E3GIJ4RWZ/LB1D1

Departure

Time 2026-04-22 18:51
Airport Richmond International Airport (KRIC)

Arrival

Time 2026-04-22 19:19
Airport Baltimore/Washington International Thurgood Marshall Airport (KBWI)
Time Latitude Longitude Altitude Speed Heading
2026-04-22 18:35 37.50663 -77.33055 171 ft 0 kts 285°
2026-04-22 18:44 37.50660 -77.33040 171 ft 2 kts 285°
2026-04-22 18:44 37.50656 -77.33021 171 ft 2 kts 285°
2026-04-22 18:44 37.50652 -77.33001 171 ft 2 kts 268°
2026-04-22 18:45 37.50656 -77.32981 171 ft 2 kts 237°
2026-04-22 18:45 37.50666 -77.32966 171 ft 2 kts 222°
2026-04-22 18:45 37.50677 -77.32959 171 ft 0 kts 192°
2026-04-22 18:47 37.50674 -77.32960 171 ft 2 kts 192°
2026-04-22 18:47 37.50639 -77.32970 171 ft 9 kts 193°
2026-04-22 18:47 37.50566 -77.32991 171 ft 13 kts 194°
2026-04-22 18:47 37.50479 -77.32968 170 ft 16 kts 111°
2026-04-22 18:48 37.50450 -77.32808 169 ft 22 kts 100°
2026-04-22 18:48 37.50436 -77.32586 165 ft 29 kts 93°
2026-04-22 18:48 37.50421 -77.32336 169 ft 28 kts 94°
2026-04-22 18:48 37.50406 -77.32076 168 ft 31 kts 95°
2026-04-22 18:49 37.50389 -77.31802 167 ft 31 kts 94°
2026-04-22 18:49 37.50303 -77.31572 167 ft 31 kts 148°
2026-04-22 18:49 37.50118 -77.31427 163 ft 32 kts 147°
2026-04-22 18:49 37.49935 -77.31280 162 ft 30 kts 147°
2026-04-22 18:50 37.49766 -77.31145 164 ft 27 kts 148°
2026-04-22 18:50 37.49609 -77.31019 165 ft 27 kts 147°
2026-04-22 18:50 37.49503 -77.30869 165 ft 24 kts 71°
2026-04-22 18:50 37.49602 -77.30721 164 ft 23 kts
2026-04-22 18:51 37.49858 -77.30912 163 ft 78 kts 327°
2026-04-22 18:51 37.50516 -77.31442 172 ft 143 kts 328°
2026-04-22 18:51 37.51426 -77.32129 692 ft 154 kts 325°
2026-04-22 18:51 37.52422 -77.32704 1395 ft 169 kts 346°
2026-04-22 18:52 37.53684 -77.32349 1656 ft 211 kts 36°
2026-04-22 18:52 37.54712 -77.30972 2325 ft 220 kts 46°
2026-04-22 18:52 37.55770 -77.29499 2972 ft 232 kts 44°
2026-04-22 18:52 37.56888 -77.27994 3657 ft 243 kts 42°
2026-04-22 18:53 37.58119 -77.26385 3948 ft 272 kts 41°
2026-04-22 18:53 37.59479 -77.24612 4553 ft 285 kts 41°
2026-04-22 18:53 37.60878 -77.22808 5495 ft 287 kts 40°
2026-04-22 18:53 37.62289 -77.21013 6672 ft 288 kts 40°
2026-04-22 18:54 37.63717 -77.19205 7711 ft 294 kts 40°
2026-04-22 18:54 37.65163 -77.17350 8719 ft 300 kts 40°
2026-04-22 18:54 37.66643 -77.15446 9723 ft 306 kts 40°
2026-04-22 18:54 37.68200 -77.13581 10601 ft 314 kts 35°
2026-04-22 18:55 37.69931 -77.11803 10925 ft 330 kts 32°
2026-04-22 18:55 37.71768 -77.10000 10983 ft 335 kts 32°
2026-04-22 18:55 37.73607 -77.08197 10987 ft 333 kts 32°
2026-04-22 18:55 37.75431 -77.06391 10991 ft 332 kts 32°
2026-04-22 18:56 37.77246 -77.04580 10995 ft 332 kts 33°
2026-04-22 18:56 37.79029 -77.02789 10994 ft 332 kts 33°
2026-04-22 18:56 37.80857 -77.00947 10993 ft 332 kts 33°
2026-04-22 18:56 37.82636 -76.99150 10989 ft 332 kts 33°
2026-04-22 18:57 37.84438 -76.97326 10992 ft 332 kts 33°
2026-04-22 18:57 37.86242 -76.95500 10994 ft 332 kts 33°
2026-04-22 18:57 37.88048 -76.93671 10993 ft 332 kts 33°
2026-04-22 18:57 37.89856 -76.91838 10990 ft 333 kts 33°
2026-04-22 18:58 37.91640 -76.89962 10990 ft 335 kts 37°
2026-04-22 18:58 37.93321 -76.87896 11004 ft 336 kts 40°
2026-04-22 18:58 37.94951 -76.85780 11002 ft 335 kts 40°
2026-04-22 18:58 37.96574 -76.83663 10991 ft 334 kts 40°
2026-04-22 18:59 37.98201 -76.81557 10986 ft 333 kts 40°
2026-04-22 18:59 37.99807 -76.79497 10985 ft 332 kts 39°
2026-04-22 18:59 38.01435 -76.77420 10979 ft 332 kts 39°
2026-04-22 18:59 38.03065 -76.75347 10978 ft 331 kts 39°
2026-04-22 19:00 38.04695 -76.73277 10981 ft 331 kts 39°
2026-04-22 19:00 38.06325 -76.71206 10986 ft 331 kts 39°
2026-04-22 19:00 38.07950 -76.69139 10980 ft 331 kts 39°
2026-04-22 19:00 38.09607 -76.67109 10987 ft 329 kts 35°
2026-04-22 19:01 38.11383 -76.65297 10993 ft 327 kts 31°
2026-04-22 19:01 38.13207 -76.63563 11005 ft 327 kts 31°
2026-04-22 19:01 38.15009 -76.61865 11000 ft 327 kts 32°
2026-04-22 19:01 38.16833 -76.60132 10969 ft 327 kts 32°
2026-04-22 19:02 38.18649 -76.58389 10965 ft 327 kts 32°
2026-04-22 19:02 38.20459 -76.56638 10962 ft 326 kts 32°
2026-04-22 19:02 38.22266 -76.54883 10972 ft 327 kts 32°
2026-04-22 19:02 38.24074 -76.53120 10983 ft 328 kts 32°
2026-04-22 19:03 38.25887 -76.51349 10974 ft 329 kts 33°
2026-04-22 19:03 38.27705 -76.49571 10969 ft 329 kts 32°
2026-04-22 19:03 38.29515 -76.47799 10956 ft 327 kts 32°
2026-04-22 19:03 38.31312 -76.46040 10952 ft 325 kts 32°
2026-04-22 19:04 38.32496 -76.44880 10953 ft 323 kts 32°
2026-04-22 19:04 38.35001 -76.42947 10960 ft 314 kts 18°
2026-04-22 19:04 38.37024 -76.41924 10967 ft 312 kts 16°
2026-04-22 19:04 38.39052 -76.40951 10966 ft 312 kts 15°
2026-04-22 19:05 38.40427 -76.40295 10966 ft 312 kts 15°
2026-04-22 19:05 38.42467 -76.39315 10964 ft 313 kts 15°
2026-04-22 19:05 38.44480 -76.38339 10966 ft 314 kts 16°
2026-04-22 19:05 38.46529 -76.37339 10966 ft 315 kts 16°
2026-04-22 19:06 38.48582 -76.36331 10967 ft 316 kts 16°
2026-04-22 19:06 38.50634 -76.35321 10974 ft 317 kts 16°
2026-04-22 19:06 38.52696 -76.34304 10988 ft 318 kts 16°
2026-04-22 19:07 38.56848 -76.32255 10986 ft 320 kts 17°
2026-04-22 19:07 38.58921 -76.31230 10963 ft 319 kts 17°
2026-04-22 19:07 38.61019 -76.30347 10969 ft 314 kts
2026-04-22 19:07 38.63178 -76.29982 10766 ft 313 kts 358°
2026-04-22 19:08 38.65359 -76.29935 10506 ft 313 kts 356°
2026-04-22 19:08 38.67506 -76.29930 10314 ft 305 kts 356°
2026-04-22 19:08 38.69564 -76.29925 10160 ft 294 kts 356°
2026-04-22 19:08 38.71569 -76.29911 10003 ft 283 kts 356°
2026-04-22 19:09 38.73531 -76.29892 9604 ft 281 kts 356°
2026-04-22 19:09 38.75476 -76.29870 9245 ft 278 kts 356°
2026-04-22 19:09 38.77397 -76.29844 8866 ft 275 kts 356°
2026-04-22 19:09 38.79307 -76.29816 8497 ft 273 kts 356°
2026-04-22 19:10 38.81200 -76.29788 8155 ft 272 kts 356°
2026-04-22 19:10 38.83094 -76.29759 7788 ft 272 kts 356°
2026-04-22 19:10 38.84984 -76.29745 7408 ft 270 kts 352°
2026-04-22 19:10 38.86745 -76.30397 7021 ft 261 kts 326°
2026-04-22 19:11 38.88109 -76.31860 6670 ft 255 kts 307°
2026-04-22 19:11 38.89149 -76.33687 6319 ft 252 kts 304°
2026-04-22 19:11 38.90149 -76.35529 5939 ft 251 kts 304°
2026-04-22 19:11 38.91145 -76.37359 5588 ft 249 kts 304°
2026-04-22 19:12 38.92138 -76.39169 5278 ft 246 kts 304°
2026-04-22 19:12 38.93106 -76.40936 4943 ft 244 kts 304°
2026-04-22 19:12 38.94076 -76.42714 4589 ft 243 kts 304°
2026-04-22 19:12 38.95053 -76.44451 4397 ft 234 kts 307°
2026-04-22 19:13 38.96105 -76.45978 4371 ft 221 kts 312°
2026-04-22 19:13 38.97141 -76.47373 4296 ft 213 kts 311°
2026-04-22 19:13 38.98133 -76.48764 4185 ft 208 kts 310°
2026-04-22 19:13 38.99134 -76.50072 4053 ft 203 kts 318°
2026-04-22 19:14 39.00254 -76.51163 3871 ft 200 kts 321°
2026-04-22 19:14 39.01352 -76.52184 3776 ft 190 kts 321°
2026-04-22 19:14 39.02385 -76.53151 3579 ft 184 kts 321°
2026-04-22 19:14 39.03403 -76.54109 3322 ft 178 kts 321°
2026-04-22 19:15 39.04384 -76.55036 3081 ft 172 kts 321°
2026-04-22 19:15 39.05345 -76.55938 2827 ft 168 kts 321°
2026-04-22 19:15 39.06281 -76.56811 2597 ft 165 kts 321°
2026-04-22 19:15 39.07210 -76.57668 2416 ft 163 kts 321°
2026-04-22 19:16 39.08121 -76.58546 2159 ft 164 kts 320°
2026-04-22 19:16 39.09050 -76.59417 1946 ft 166 kts 321°
2026-04-22 19:16 39.09989 -76.60263 1719 ft 162 kts 321°
2026-04-22 19:16 39.10882 -76.61085 1503 ft 154 kts 321°
2026-04-22 19:17 39.11724 -76.61878 1315 ft 144 kts 320°
2026-04-22 19:17 39.12503 -76.62612 1109 ft 139 kts 320°
2026-04-22 19:17 39.13289 -76.63328 961 ft 137 kts 321°
2026-04-22 19:17 39.14085 -76.64076 764 ft 143 kts 321°
2026-04-22 19:18 39.14892 -76.64825 590 ft 143 kts 323°
2026-04-22 19:18 39.15695 -76.65563 392 ft 141 kts 322°
2026-04-22 19:18 39.16486 -76.66302 188 ft 139 kts 324°
2026-04-22 19:18 39.17223 -76.66982 150 ft 112 kts 324°
2026-04-22 19:19 39.17724 -76.67448 143 ft 66 kts 324°
2026-04-22 19:19 39.17974 -76.67678 144 ft 35 kts 324°
2026-04-22 19:19 39.18128 -76.67768 144 ft 19 kts 33°
2026-04-22 19:19 39.18205 -76.67633 149 ft 18 kts 54°
2026-04-22 19:20 39.18275 -76.67516 151 ft 15 kts 53°
2026-04-22 19:20 39.18300 -76.67412 151 ft 12 kts 124°
2026-04-22 19:20 39.18234 -76.67348 154 ft 11 kts 144°
2026-04-22 19:20 39.18182 -76.67356 154 ft 6 kts 210°
2026-04-22 19:21 39.18173 -76.67363 154 ft 0 kts 209°